Starlink 5303

operational
NORAD ID: 55630 Int'l Des: 2023-021 Owner: SPXS Country: US Constellation: starlink
LEOCIRCULAR

Über Starlink 5303

Beschreibung wird geladen...

Live-Position

3D-Globus wird geladen...

Nächste Überflüge

Höhenverlauf

Altitude vs Time

uPlot chart will show altitude changes over time

Zweizeiliger Elementsatz

1 55630U 23021C 25257.48954751 -.00000177 00000-0 -70320-5 0 9995
2 55630 69.9978 288.7788 0003536 269.1955 90.8799 14.98329978141908
Epoch: 14. Sept. 2025 • Age: 26 hours

Aktueller Status

Höhe 575.9 km
Geschwindigkeit 7.57 km/s
Subsatellitenpunkt 25.68°N, 98.73°E
Startdatum 17. Feb. 2023
Alter 2.5 years
Typ internet

Technische Details

Klassifizierung Payload
Masse 305.00 kg
Trockenmasse 290.00 kg
Gesamtmasse 305.00 kg
Länge 0.20 m
Durchmesser 2.80 m
Spannweite 9.00 m
Form Box + pan
Hersteller SPXS
Bus-Typ Starlink
Phasenstatus In Orbit
Besitzer/Staat SPXS/US

Große Konstellationen

Loading constellations...